Location: Lower Kingswood
(51.2667°N, 0.2167°W)
Time: 04:37:21
(UTC+00:00)

H-2A R/B - Pass Details

Date: 26 September 2023
Orbit: 731 x 835 km, 98.2° (Epoch: 29 November)

Event Time Altitude Azimuth Distance (km) Brightness Sun altitude
Rises 04:26:37 0° 19° (NNE) 3,386 5.9 -14.1°
Reaches altitude 10° 04:29:08 10° 27° (NNE) 2,454 5.2 -13.8°
Maximum altitude 04:34:15 40° 96° (E) 1,227 3.7 -13.0°
Drops below altitude 10° 04:39:20 10° 165° (SSE) 2,439 4.6 -12.2°
Sets 04:41:49 0° 173° (S) 3,363 5.3 -11.8°
